| time (UTC) | temp F | wind direction | speed knots | gust knots | rain 1hr in | rain 24hr in | rain mn in | humidity % | barometer mb |
| 20260901205016 | 90 | 149 | 0.9 | 1.7 | 0.00 | 0.00 | 0.00 | 67 | 1014.8 |
| 20260901204519 | 90 | 134 | 0.0 | 0.9 | 0.00 | 0.00 | 0.00 | 66 | 1014.8 |
| 20260901204014 | 90 | 140 | 0.0 | 1.7 | 0.00 | 0.00 | 0.00 | 67 | 1014.7 |
| 20260901203519 | 90 | 136 | 0.9 | 1.7 | 0.00 | 0.00 | 0.00 | 65 | 1014.9 |
| 20260901203110 | 90 | 119 | 0.9 | 1.7 | 0.00 | 0.00 | 0.00 | 65 | 1014.8 |
| 20260901202517 | 90 | 121 | 0.0 | 1.7 | 0.00 | 0.00 | 0.00 | 67 | 1014.9 |
| 20260901201508 | 90 | 159 | 0.9 | 3.5 | 0.00 | 0.00 | 0.00 | 72 | 1015.1 |
| 20260901201012 | 90 | 186 | 0.0 | 1.7 | 0.00 | 0.00 | 0.00 | 71 | 1015.1 |
| 20260901200504 | 89 | 184 | 0.0 | 1.7 | 0.00 | 0.00 | 0.00 | 75 | 1015.2 |
| 20260901200006 | 89 | 184 | 0.9 | 3.5 | 0.00 | 0.00 | 0.00 | 72 | 1015.3 |
| 20260901195614 | 89 | 172 | 0.0 | 3.5 | 0.00 | 0.00 | 0.00 | 73 | 1015.4 |
| 20260901194504 | 89 | 185 | 0.0 | 1.7 | 0.00 | 0.00 | 0.00 | 76 | 1015.4 |
| 20260901194002 | 89 | 185 | 0.0 | 1.7 | 0.00 | 0.00 | 0.00 | 75 | 1015.5 |
| 20260901193003 | 88 | 186 | 0.0 | 0.9 | 0.00 | 0.00 | 0.00 | 77 | 1015.5 |
| 20260901192503 | 88 | 186 | 0.0 | 0.9 | 0.00 | 0.00 | 0.00 | 76 | 1015.4 |
| 20260901192003 | 88 | 186 | 0.0 | 0.9 | 0.00 | 0.00 | 0.00 | 77 | 1015.4 |
| 20260901191502 | 88 | 175 | 0.0 | 0.9 | 0.00 | 0.00 | 0.00 | 77 | 1015.4 |
| 20260901191002 | 87 | 175 | 0.0 | 0.0 | 0.00 | 0.00 | 0.00 | 77 | 1015.4 |
| 20260901190516 | 87 | 175 | 0.0 | 0.0 | 0.00 | 0.00 | 0.00 | 78 | 1015.5 |
| 20260901190001 | 87 | 175 | 0.0 | 0.9 | 0.00 | 0.00 | 0.00 | 78 | 1015.4 |
| 20260901185505 | 88 | 175 | 0.0 | 2.6 | 0.00 | 0.00 | 0.00 | 76 | 1015.5 |
| 20260901185007 | 88 | 175 | 0.0 | 2.6 | 0.00 | 0.00 | 0.00 | 79 | 1015.5 |
| 20260901184505 | 88 | 176 | 0.0 | 1.7 | 0.00 | 0.00 | 0.00 | 76 | 1015.4 |
| 20260901184003 | 88 | 176 | 0.0 | 1.7 | 0.00 | 0.00 | 0.00 | 75 | 1015.3 |
| 20260901183034 | 88 | 168 | 0.0 | 1.7 | 0.00 | 0.00 | 0.00 | 76 | 1015.5 |
| 20260901181949 | 88 | 150 | 0.0 | 0.9 | 0.00 | 0.00 | 0.00 | 76 | 1015.7 |
| 20260901181443 | 88 | 150 | 0.0 | 0.9 | 0.00 | 0.00 | 0.00 | 77 | 1015.7 |
| 20260901180940 | 88 | 150 | 0.0 | 0.9 | 0.00 | 0.00 | 0.00 | 75 | 1015.7 |
| 20260901180432 | 88 | 150 | 0.0 | 1.7 | 0.00 | 0.00 | 0.00 | 75 | 1015.8 |
| 20260901175935 | 89 | 150 | 0.0 | 1.7 | 0.00 | 0.00 | 0.00 | 73 | 1015.8 |
| 20260901175432 | 89 | 159 | 0.0 | 1.7 | 0.00 | 0.00 | 0.00 | 75 | 1016.0 |
| 20260901174936 | 89 | 160 | 0.0 | 3.5 | 0.00 | 0.00 | 0.00 | 74 | 1016.0 |
| 20260901174433 | 89 | 161 | 0.9 | 3.5 | 0.00 | 0.00 | 0.00 | 72 | 1015.9 |
| 20260901173931 | 89 | 170 | 0.9 | 3.5 | 0.00 | 0.00 | 0.00 | 72 | 1015.9 |
| 20260901173431 | 89 | 191 | 0.9 | 4.3 | 0.00 | 0.00 | 0.00 | 73 | 1015.8 |
| 20260901172931 | 89 | 184 | 0.9 | 4.3 | 0.00 | 0.00 | 0.00 | 74 | 1015.9 |
| 20260901171432 | 89 | 137 | 0.9 | 1.7 | 0.00 | 0.00 | 0.00 | 76 | 1016.1 |
| 20260901170932 | 89 | 138 | 0.9 | 1.7 | 0.00 | 0.00 | 0.00 | 73 | 1016.1 |
| 20260901165934 | 89 | 135 | 0.9 | 4.3 | 0.00 | 0.00 | 0.00 | 74 | 1016.0 |
| 20260901164931 | 88 | 163 | 0.9 | 4.3 | 0.00 | 0.00 | 0.00 | 75 | 1015.9 |
| 20260901164434 | 88 | 157 | 0.9 | 4.3 | 0.00 | 0.00 | 0.00 | 74 | 1016.0 |
| 20260901162940 | 87 | 155 | 0.0 | 1.7 | 0.00 | 0.00 | 0.00 | 77 | 1016.4 |
| 20260901162434 | 87 | 153 | 0.9 | 2.6 | 0.00 | 0.00 | 0.00 | 75 | 1016.4 |
| 20260901161935 | 87 | 149 | 0.9 | 2.6 | 0.00 | 0.00 | 0.00 | 76 | 1016.4 |
| 20260901161432 | 87 | 135 | 0.9 | 1.7 | 0.00 | 0.00 | 0.00 | 75 | 1016.6 |
| 20260901160431 | 87 | 166 | 0.9 | 3.5 | 0.00 | 0.00 | 0.00 | 75 | 1016.6 |
| 20260901155933 | 87 | 166 | 0.0 | 2.6 | 0.00 | 0.00 | 0.00 | 75 | 1016.6 |
| 20260901154934 | 87 | 194 | 0.9 | 1.7 | 0.00 | 0.00 | 0.00 | 76 | 1016.6 |
| 20260901153434 | 86 | 183 | 0.0 | 1.7 | 0.00 | 0.00 | 0.00 | 77 | 1016.8 |
| 20260901152433 | 86 | 179 | 0.0 | 1.7 | 0.00 | 0.00 | 0.00 | 77 | 1016.9 |
| 20260901151431 | 86 | 179 | 0.0 | 5.2 | 0.00 | 0.00 | 0.00 | 77 | 1016.8 |
| 20260901150922 | 86 | 179 | 0.0 | 5.2 | 0.00 | 0.00 | 0.00 | 74 | 1016.7 |
| 20260901145919 | 86 | 144 | 0.0 | 1.7 | 0.00 | 0.00 | 0.00 | 77 | 1017.0 |
| 20260901145414 | 85 | 165 | 0.0 | 1.7 | 0.00 | 0.00 | 0.00 | 79 | 1017.0 |
| 20260901144416 | 85 | 164 | 0.9 | 3.5 | 0.00 | 0.00 | 0.00 | 79 | 1017.0 |
| 20260901143911 | 85 | 164 | 0.9 | 3.5 | 0.00 | 0.00 | 0.00 | 78 | 1017.1 |
| 20260901143417 | 84 | 159 | 0.9 | 4.3 | 0.00 | 0.00 | 0.00 | 80 | 1017.1 |
| 20260901142911 | 84 | 167 | 0.9 | 4.3 | 0.00 | 0.00 | 0.00 | 80 | 1017.2 |
| 20260901141914 | 84 | 169 | 0.0 | 0.9 | 0.00 | 0.00 | 0.00 | 83 | 1017.1 |
| 20260901141412 | 83 | 169 | 0.9 | 3.5 | 0.00 | 0.00 | 0.00 | 84 | 1017.0 |
| 20260901140906 | 83 | 167 | 0.9 | 4.3 | 0.00 | 0.00 | 0.00 | 84 | 1017.2 |
| 20260901140409 | 83 | 158 | 0.9 | 4.3 | 0.00 | 0.00 | 0.00 | 84 | 1017.4 |
| 20260901135910 | 83 | 159 | 0.9 | 4.3 | 0.00 | 0.00 | 0.00 | 84 | 1017.3 |
| 20260901135404 | 83 | 159 | 0.9 | 4.3 | 0.00 | 0.00 | 0.00 | 85 | 1017.4 |
| 20260901133901 | 82 | 163 | 0.9 | 4.3 | 0.00 | 0.00 | 0.00 | 87 | 1017.5 |
| 20260901133401 | 81 | 164 | 0.9 | 4.3 | 0.00 | 0.00 | 0.00 | 87 | 1017.5 |
| 20260901132354 | 81 | 165 | 0.0 | 4.3 | 0.00 | 0.00 | 0.00 | 88 | 1017.4 |
| 20260901131854 | 80 | 177 | 0.9 | 2.6 | 0.00 | 0.00 | 0.00 | 90 | 1017.4 |
| 20260901131356 | 80 | 177 | 0.9 | 5.2 | 0.00 | 0.00 | 0.00 | 90 | 1017.5 |
| 20260901130859 | 80 | 177 | 0.0 | 5.2 | 0.00 | 0.00 | 0.00 | 90 | 1017.3 |
| 20260901125857 | 79 | 268 | 0.0 | 1.7 | 0.00 | 0.00 | 0.00 | 93 | 1017.4 |
| 20260901124911 | 78 | 269 | 0.0 | 1.7 | 0.00 | 0.00 | 0.00 | 94 | 1017.3 |
| 20260901123849 | 78 | 269 | 0.0 | 2.6 | 0.00 | 0.00 | 0.00 | 94 | 1017.5 |
| 20260901123348 | 78 | 269 | 0.0 | 1.7 | 0.00 | 0.00 | 0.00 | 96 | 1017.5 |
| 20260901122852 | 77 | 269 | 0.0 | 1.7 | 0.00 | 0.00 | 0.00 | 96 | 1017.8 |
| 20260901122344 | 77 | 269 | 0.0 | 2.6 | 0.00 | 0.00 | 0.00 | 97 | 1017.9 |
| 20260901121343 | 76 | 269 | 0.0 | 1.7 | 0.00 | 0.00 | 0.00 | 99 | 1018.0 |
| 20260901120344 | 76 | 269 | 0.0 | 1.7 | 0.00 | 0.00 | 0.00 | 100 | 1017.8 |
| 20260901115844 | 76 | 269 | 0.0 | 1.7 | 0.00 | 0.00 | 0.00 | 100 | 1017.8 |
| 20260901115340 | 76 | 269 | 0.0 | 0.0 | 0.00 | 0.00 | 0.00 | 100 | 1017.8 |
| 20260901114841 | 75 | 269 | 0.0 | 0.0 | 0.00 | 0.00 | 0.00 | 100 | 1017.7 |
| 20260901114341 | 75 | 269 | 0.0 | 0.0 | 0.00 | 0.00 | 0.00 | 100 | 1017.8 |
| 20260901113843 | 75 | 269 | 0.0 | 0.0 | 0.00 | 0.00 | 0.00 | 100 | 1017.7 |
| 20260901113410 | 75 | 269 | 0.0 | 0.0 | 0.00 | 0.00 | 0.00 | 100 | 1017.8 |
| 20260901112344 | 75 | 269 | 0.0 | 0.0 | 0.00 | 0.00 | 0.00 | 100 | 1017.6 |
| 20260901111336 | 74 | 269 | 0.0 | 0.0 | 0.00 | 0.00 | 0.00 | 100 | 1017.3 |
| 20260901105342 | 74 | 269 | 0.0 | 0.0 | 0.00 | 0.00 | 0.00 | 99 | 1017.3 |
| 20260901104837 | 74 | 269 | 0.0 | 0.0 | 0.00 | 0.00 | 0.00 | 99 | 1017.2 |
| 20260901104341 | 74 | 269 | 0.0 | 0.0 | 0.00 | 0.00 | 0.00 | 99 | 1017.1 |
| 20260901103843 | 74 | 269 | 0.0 | 0.0 | 0.00 | 0.00 | 0.00 | 99 | 1017.2 |
| 20260901103334 | 74 | 269 | 0.0 | 0.0 | 0.00 | 0.00 | 0.00 | 99 | 1017.1 |
| 20260901102836 | 74 | 269 | 0.0 | 0.0 | 0.00 | 0.00 | 0.00 | 99 | 1017.2 |
| 20260901102331 | 74 | 269 | 0.0 | 0.0 | 0.00 | 0.00 | 0.00 | 99 | 1017.1 |
| 20260901101331 | 74 | 269 | 0.0 | 0.0 | 0.00 | 0.00 | 0.00 | 99 | 1017.2 |
| 20260901100339 | 74 | 269 | 0.0 | 0.0 | 0.00 | 0.00 | 0.00 | 99 | 1017.2 |
| 20260901095334 | 74 | 269 | 0.0 | 0.0 | 0.00 | 0.00 | 0.00 | 99 | 1017.1 |
| 20260901094838 | 75 | 269 | 0.0 | 0.0 | 0.00 | 0.00 | 0.00 | 99 | 1017.1 |
| 20260901094330 | 74 | 269 | 0.0 | 0.0 | 0.00 | 0.00 | 0.00 | 99 | 1017.1 |
| 20260901093834 | 74 | 269 | 0.0 | 0.0 | 0.00 | 0.00 | 0.00 | 99 | 1017.0 |
| 20260901092836 | 75 | 269 | 0.0 | 0.0 | 0.00 | 0.00 | 0.00 | 99 | 1017.1 |
| 20260901092330 | 75 | 269 | 0.0 | 0.0 | 0.00 | 0.00 | 0.00 | 99 | 1017.1 |
| 20260901091337 | 75 | 269 | 0.0 | 0.0 | 0.00 | 0.00 | 0.00 | 99 | 1017.0 |
| 20260901090833 | 75 | 269 | 0.0 | 0.0 | 0.00 | 0.00 | 0.00 | 99 | 1017.0 |
| 20260901090335 | 75 | 269 | 0.0 | 0.0 | 0.00 | 0.00 | 0.00 | 99 | 1017.2 |
| 20260901085833 | 75 | 269 | 0.0 | 0.0 | 0.00 | 0.00 | 0.00 | 99 | 1017.2 |
| 20260901085328 | 75 | 269 | 0.0 | 0.0 | 0.00 | 0.00 | 0.00 | 99 | 1017.2 |
| 20260901084838 | 75 | 269 | 0.0 | 0.0 | 0.00 | 0.00 | 0.00 | 99 | 1017.3 |
| 20260901084335 | 75 | 269 | 0.0 | 0.0 | 0.00 | 0.00 | 0.00 | 99 | 1017.4 |
| 20260901083828 | 75 | 269 | 0.0 | 0.0 | 0.00 | 0.00 | 0.00 | 99 | 1017.3 |
| 20260901082820 | 75 | 269 | 0.0 | 0.0 | 0.00 | 0.00 | 0.00 | 99 | 1017.3 |
| 20260901082322 | 75 | 269 | 0.0 | 0.0 | 0.00 | 0.00 | 0.00 | 99 | 1017.2 |
| 20260901081822 | 75 | 269 | 0.0 | 0.0 | 0.00 | 0.00 | 0.00 | 99 | 1017.2 |
| 20260901081320 | 75 | 269 | 0.0 | 0.0 | 0.00 | 0.00 | 0.00 | 99 | 1017.3 |
| 20260901080822 | 75 | 269 | 0.0 | 0.0 | 0.00 | 0.00 | 0.00 | 99 | 1017.4 |
| 20260901075815 | 75 | 269 | 0.0 | 0.0 | 0.00 | 0.00 | 0.00 | 99 | 1017.4 |
| 20260901075314 | 75 | 269 | 0.0 | 0.0 | 0.00 | 0.00 | 0.00 | 99 | 1017.4 |
| 20260901074813 | 75 | 269 | 0.0 | 0.0 | 0.00 | 0.00 | 0.00 | 99 | 1017.4 |
| 20260901074314 | 75 | 269 | 0.0 | 0.0 | 0.00 | 0.00 | 0.00 | 99 | 1017.4 |
| 20260901073311 | 75 | 269 | 0.0 | 0.0 | 0.00 | 0.00 | 0.00 | 99 | 1017.5 |
| 20260901072812 | 74 | 269 | 0.0 | 0.0 | 0.00 | 0.00 | 0.00 | 99 | 1017.5 |
| 20260901072311 | 74 | 269 | 0.0 | 0.0 | 0.00 | 0.00 | 0.00 | 98 | 1017.6 |
| 20260901071804 | 74 | 269 | 0.0 | 0.0 | 0.00 | 0.00 | 0.00 | 98 | 1017.6 |
| 20260901070802 | 75 | 269 | 0.0 | 0.0 | 0.00 | 0.00 | 0.00 | 98 | 1017.4 |
| 20260901070303 | 75 | 269 | 0.0 | 0.0 | 0.00 | 0.00 | 0.00 | 98 | 1017.4 |
| 20260901065805 | 75 | 269 | 0.0 | 0.0 | 0.00 | 0.00 | 0.00 | 98 | 1017.3 |
| 20260901064303 | 75 | 269 | 0.0 | 0.0 | 0.00 | 0.00 | 0.00 | 98 | 1017.5 |
| 20260901063304 | 75 | 269 | 0.0 | 0.0 | 0.00 | 0.00 | 0.00 | 97 | 1017.5 |
| 20260901062805 | 75 | 269 | 0.0 | 0.0 | 0.00 | 0.00 | 0.00 | 97 | 1017.7 |
| 20260901061808 | 75 | 269 | 0.0 | 0.0 | 0.00 | 0.00 | 0.00 | 97 | 1017.7 |
| 20260901061307 | 75 | 269 | 0.0 | 0.0 | 0.00 | 0.00 | 0.00 | 97 | 1017.7 |
| 20260901060803 | 75 | 269 | 0.0 | 0.0 | 0.00 | 0.00 | 0.00 | 97 | 1017.8 |
| 20260901060304 | 75 | 269 | 0.0 | 0.0 | 0.00 | 0.00 | 0.00 | 97 | 1018.0 |
| 20260901055804 | 75 | 269 | 0.0 | 0.0 | 0.00 | 0.00 | 0.00 | 97 | 1017.9 |
| 20260901055310 | 75 | 269 | 0.0 | 0.0 | 0.00 | 0.00 | 0.00 | 97 | 1018.1 |
| 20260901054803 | 75 | 269 | 0.0 | 0.0 | 0.00 | 0.00 | 0.00 | 97 | 1018.2 |
| 20260901053803 | 75 | 269 | 0.0 | 0.0 | 0.00 | 0.00 | 0.00 | 97 | 1018.3 |
| 20260901053304 | 75 | 269 | 0.0 | 0.0 | 0.00 | 0.00 | 0.00 | 97 | 1018.5 |
| 20260901052803 | 75 | 269 | 0.0 | 0.0 | 0.00 | 0.00 | 0.00 | 97 | 1018.6 |
| 20260901051255 | 76 | 269 | 0.0 | 0.0 | 0.00 | 0.00 | 0.00 | 96 | 1018.6 |
| 20260901050756 | 76 | 269 | 0.0 | 0.0 | 0.00 | 0.00 | 0.00 | 96 | 1018.7 |
| 20260901050253 | 76 | 269 | 0.0 | 0.0 | 0.00 | 0.00 | 0.00 | 97 | 1018.6 |
| 20260901045801 | 76 | 269 | 0.0 | 0.0 | 0.00 | 0.00 | 0.00 | 96 | 1018.7 |
| 20260901045252 | 76 | 269 | 0.0 | 0.0 | 0.00 | 0.00 | 0.00 | 96 | 1018.8 |
| 20260901044757 | 76 | 269 | 0.0 | 0.0 | 0.00 | 0.00 | 0.00 | 96 | 1018.7 |
| 20260901043748 | 76 | 269 | 0.0 | 0.0 | 0.00 | 0.00 | 0.00 | 96 | 1018.5 |
| 20260901043246 | 76 | 269 | 0.0 | 0.0 | 0.00 | 0.00 | 0.00 | 96 | 1018.6 |
| 20260901042747 | 76 | 269 | 0.0 | 0.0 | 0.00 | 0.00 | 0.00 | 96 | 1018.5 |
| 20260901042246 | 76 | 269 | 0.0 | 0.0 | 0.00 | 0.00 | 0.00 | 96 | 1018.5 |
| 20260901041746 | 76 | 269 | 0.0 | 0.0 | 0.00 | 0.00 | 0.00 | 96 | 1018.5 |
| 20260901041246 | 76 | 269 | 0.0 | 0.0 | 0.00 | 0.00 | 0.00 | 96 | 1018.3 |
| 20260901040244 | 76 | 269 | 0.0 | 0.0 | 0.00 | 0.00 | 0.00 | 96 | 1018.3 |
| 20260901035744 | 76 | 269 | 0.0 | 0.0 | 0.00 | 0.00 | 0.00 | 95 | 1018.4 |
| 20260901034738 | 76 | 269 | 0.0 | 0.0 | 0.00 | 0.00 | 0.00 | 95 | 1018.3 |
| 20260901034242 | 76 | 269 | 0.0 | 0.0 | 0.00 | 0.00 | 0.00 | 95 | 1018.3 |
| 20260901032235 | 76 | 269 | 0.0 | 0.0 | 0.00 | 0.00 | 0.00 | 95 | 1018.4 |
| 20260901031738 | 76 | 269 | 0.0 | 0.0 | 0.00 | 0.00 | 0.00 | 95 | 1018.2 |
| 20260901031237 | 76 | 269 | 0.0 | 0.0 | 0.00 | 0.00 | 0.00 | 95 | 1018.2 |
| 20260901030739 | 76 | 269 | 0.0 | 0.0 | 0.00 | 0.00 | 0.00 | 95 | 1018.3 |
| 20260901030236 | 76 | 269 | 0.0 | 0.0 | 0.00 | 0.00 | 0.00 | 95 | 1018.3 |
| 20260901025230 | 76 | 269 | 0.0 | 0.0 | 0.00 | 0.00 | 0.00 | 95 | 1018.4 |
| 20260901024732 | 76 | 269 | 0.0 | 0.0 | 0.00 | 0.00 | 0.00 | 94 | 1018.3 |
| 20260901024233 | 76 | 269 | 0.0 | 0.0 | 0.00 | 0.00 | 0.00 | 94 | 1018.4 |
| 20260901023733 | 76 | 269 | 0.0 | 0.0 | 0.00 | 0.00 | 0.00 | 94 | 1018.4 |
| 20260901022733 | 76 | 269 | 0.0 | 0.0 | 0.00 | 0.00 | 0.00 | 94 | 1018.6 |
| 20260901022236 | 76 | 269 | 0.0 | 0.0 | 0.00 | 0.00 | 0.00 | 94 | 1018.7 |
| 20260901021233 | 76 | 269 | 0.0 | 0.0 | 0.00 | 0.00 | 0.00 | 94 | 1018.7 |
| 20260901020733 | 76 | 269 | 0.0 | 0.0 | 0.00 | 0.00 | 0.00 | 94 | 1018.9 |
| 20260901020232 | 76 | 269 | 0.0 | 0.0 | 0.00 | 0.00 | 0.00 | 94 | 1018.9 |
| 20260901015731 | 76 | 269 | 0.0 | 0.0 | 0.00 | 0.00 | 0.00 | 94 | 1018.9 |
| 20260901014732 | 76 | 269 | 0.0 | 0.0 | 0.00 | 0.00 | 0.00 | 94 | 1019.0 |
| 20260901014231 | 76 | 269 | 0.0 | 0.0 | 0.00 | 0.00 | 0.00 | 94 | 1018.9 |
| 20260901013729 | 76 | 269 | 0.0 | 0.0 | 0.00 | 0.00 | 0.00 | 94 | 1019.0 |
| 20260901013230 | 76 | 269 | 0.0 | 0.0 | 0.00 | 0.00 | 0.00 | 94 | 1019.0 |
| 20260901012729 | 76 | 269 | 0.0 | 0.0 | 0.00 | 0.00 | 0.00 | 95 | 1019.0 |
| 20260901012228 | 76 | 269 | 0.0 | 0.0 | 0.00 | 0.00 | 0.00 | 95 | 1018.9 |
| 20260901011220 | 76 | 269 | 0.0 | 0.0 | 0.00 | 0.00 | 0.00 | 95 | 1018.9 |
| 20260901010724 | 76 | 269 | 0.0 | 0.0 | 0.00 | 0.00 | 0.00 | 95 | 1018.9 |
| 20260901010218 | 76 | 269 | 0.0 | 0.0 | 0.00 | 0.00 | 0.00 | 95 | 1018.8 |
| 20260901005216 | 76 | 269 | 0.0 | 0.0 | 0.00 | 0.00 | 0.00 | 94 | 1018.8 |
| 20260901004710 | 76 | 269 | 0.0 | 0.9 | 0.00 | 0.00 | 0.00 | 94 | 1018.8 |
| 20260901004209 | 76 | 269 | 0.0 | 0.9 | 0.00 | 0.00 | 0.00 | 94 | 1018.8 |
| 20260901003709 | 76 | 269 | 0.0 | 0.9 | 0.00 | 0.00 | 0.00 | 94 | 1018.7 |
| 20260901003208 | 76 | 269 | 0.0 | 0.9 | 0.00 | 0.00 | 0.00 | 94 | 1018.6 |
| 20260901002706 | 76 | 269 | 0.0 | 0.0 | 0.00 | 0.00 | 0.00 | 94 | 1018.5 |
| 20260901002204 | 76 | 269 | 0.0 | 0.0 | 0.00 | 0.00 | 0.00 | 94 | 1018.4 |
| 20260901001707 | 76 | 269 | 0.0 | 0.0 | 0.00 | 0.00 | 0.00 | 94 | 1018.5 |
| 20260901001221 | 76 | 269 | 0.0 | 0.0 | 0.00 | 0.00 | 0.00 | 93 | 1018.6 |
| 20260901000205 | 76 | 269 | 0.0 | 0.0 | 0.00 | 0.00 | 0.00 | 93 | 1018.6 |
| 20260831235701 | 76 | 269 | 0.0 | 0.0 | 0.00 | 0.00 | 0.00 | 93 | 1018.6 |
| 20260831235203 | 76 | 269 | 0.0 | 0.9 | 0.00 | 0.00 | 0.00 | 93 | 1018.6 |
| 20260831234708 | 76 | 269 | 0.0 | 0.9 | 0.00 | 0.00 | 0.00 | 93 | 1018.7 |
| 20260831234158 | 76 | 269 | 0.0 | 0.0 | 0.00 | 0.00 | 0.00 | 93 | 1018.7 |
| 20260831233654 | 76 | 269 | 0.0 | 0.0 | 0.00 | 0.00 | 0.00 | 93 | 1018.7 |
| 20260831233152 | 76 | 269 | 0.0 | 0.0 | 0.00 | 0.00 | 0.00 | 92 | 1018.8 |
| 20260831232654 | 76 | 269 | 0.0 | 0.0 | 0.00 | 0.00 | 0.00 | 92 | 1018.7 |
| 20260831232154 | 76 | 269 | 0.0 | 0.0 | 0.00 | 0.00 | 0.00 | 92 | 1018.9 |
| 20260831231646 | 76 | 269 | 0.0 | 0.0 | 0.00 | 0.00 | 0.00 | 92 | 1018.9 |
| 20260831231148 | 77 | 269 | 0.0 | 0.0 | 0.00 | 0.00 | 0.00 | 92 | 1019.0 |
| 20260831230147 | 77 | 269 | 0.0 | 0.0 | 0.00 | 0.00 | 0.00 | 92 | 1019.0 |
| 20260831225146 | 77 | 269 | 0.0 | 0.0 | 0.00 | 0.00 | 0.00 | 91 | 1019.1 |
| 20260831224639 | 77 | 269 | 0.0 | 0.0 | 0.00 | 0.00 | 0.00 | 91 | 1019.0 |
| 20260831223636 | 77 | 269 | 0.0 | 0.0 | 0.00 | 0.00 | 0.00 | 91 | 1019.0 |
| 20260831223133 | 77 | 269 | 0.0 | 0.0 | 0.00 | 0.00 | 0.00 | 91 | 1019.3 |
| 20260831222635 | 77 | 269 | 0.0 | 0.0 | 0.00 | 0.00 | 0.00 | 91 | 1019.4 |
| 20260831222134 | 77 | 269 | 0.0 | 0.0 | 0.00 | 0.00 | 0.00 | 91 | 1019.2 |
| 20260831221632 | 77 | 269 | 0.0 | 0.0 | 0.00 | 0.00 | 0.00 | 91 | 1019.4 |
| 20260831220640 | 77 | 269 | 0.0 | 0.9 | 0.00 | 0.00 | 0.00 | 90 | 1019.5 |
| 20260831220132 | 78 | 269 | 0.0 | 0.9 | 0.00 | 0.00 | 0.00 | 90 | 1019.5 |
| 20260831215126 | 78 | 269 | 0.0 | 0.9 | 0.00 | 0.00 | 0.00 | 90 | 1019.8 |
| 20260831214633 | 78 | 269 | 0.0 | 0.9 | 0.00 | 0.00 | 0.00 | 90 | 1019.8 |
| 20260831214123 | 78 | 269 | 0.0 | 0.9 | 0.00 | 0.00 | 0.00 | 89 | 1019.9 |
| 20260831213623 | 78 | 269 | 0.0 | 0.9 | 0.00 | 0.00 | 0.00 | 90 | 1019.9 |
| 20260831213119 | 78 | 269 | 0.0 | 0.9 | 0.00 | 0.00 | 0.00 | 90 | 1019.8 |
| 20260831212620 | 78 | 269 | 0.0 | 0.9 | 0.00 | 0.00 | 0.00 | 90 | 1019.6 |
| 20260831212121 | 78 | 269 | 0.0 | 1.7 | 0.00 | 0.00 | 0.00 | 90 | 1019.5 |
| 20260831211619 | 78 | 269 | 0.0 | 1.7 | 0.00 | 0.00 | 0.00 | 90 | 1019.5 |
| 20260831211120 | 78 | 271 | 0.0 | 0.9 | 0.00 | 0.00 | 0.00 | 91 | 1019.4 |